,,,PA_Meas_PMT16A,,PR_Meas_QMR101_102,,RH_Meas_QMH101,,SR_Meas_QMS101,,TA_Meas_QMH101,,GenWind,,GenWind,
date,time,status,PA,status,PR,status,RH,status,SR,status,TA,status,DirAvg,status,SpdAvg,
2012-01-20, 00:00:04,VALID,999.254,VALID,0,VALID,94.8896,VALID,0,VALID,22.7045,VALID,165,VALID,1.80352,
2012-01-20, 00:01:04,VALID,999.223,VALID,0,VALID,94.9048,VALID,0,VALID,22.7062,VALID,170,VALID,1.93359,
2012-01-20, 00:02:05,VALID,999.191,VALID,0,VALID,94.8896,VALID,0,VALID,22.7062,VALID,160,VALID,1.81328,
2012-01-20, 00:03:05,VALID,999.157,VALID,0,VALID,94.9201,VALID,0,VALID,22.7062,VALID,171,VALID,2.1707,
2012-01-20, 00:04:05,VALID,999.141,VALID,0,VALID,94.8896,VALID,0,VALID,22.7045,VALID,162,VALID,2.23984,
2012-01-20, 00:05:05,VALID,999.119,VALID,0,VALID,94.9125,VALID,0.104696,VALID,22.685,VALID,162,VALID,2.37578,
2012-01-20, 00:06:05,VALID,999.106,VALID,0,VALID,94.9125,VALID,0.104696,VALID,22.6655,VALID,170,VALID,2.63672,
2012-01-20, 00:07:05,VALID,999.083,VALID,0,VALID,94.9201,VALID,0.104696,VALID,22.7062,VALID,163,VALID,2.21563,
2012-01-20, 00:08:05,VALID,999.061,VALID,0,VALID,94.9201,VALID,0.104696,VALID,22.7062,VALID,162,VALID,1.48906,
2012-01-20, 00:09:05,VALID,999.04,VALID,0,VALID,94.9125,VALID,0.104696,VALID,22.7045,VALID,164,VALID,2.44102,
2012-01-20, 00:10:05,VALID,999.052,VALID,0,VALID,94.9277,VALID,0.104696,VALID,22.6655,VALID,170,VALID,1.97422,
2012-01-20, 00:11:05,VALID,999.035,VALID,0,VALID,94.9583,VALID,0,VALID,22.6655,VALID,168,VALID,2.08867,
2012-01-20, 00:12:05,VALID,999.021,VALID,0,VALID,94.9506,VALID,0.104696,VALID,22.685,VALID,171,VALID,1.80078,
2012-01-20, 00:13:05,VALID,999,VALID,0,VALID,94.9201,VALID,0.104696,VALID,22.7062,VALID,170,VALID,1.85352,
2012-01-20, 00:14:05,VALID,999.02,VALID,0,VALID,94.943,VALID,0,VALID,22.646,VALID,179,VALID,2.23672,
2012-01-20, 00:15:05,VALID,999.006,VALID,0,VALID,94.9277,VALID,0.104696,VALID,22.6867,VALID,178,VALID,1.80078,
2012-01-20, 00:16:05,VALID,999.005,VALID,0,VALID,94.9201,VALID,0,VALID,22.7045,VALID,189,VALID,1.67695,
2012-01-20, 00:17:05,VALID,999,VALID,0,VALID,94.9125,VALID,0,VALID,22.7045,VALID,175,VALID,1.8457,
2012-01-20, 00:18:05,VALID,998.998,VALID,0,VALID,94.9354,VALID,0.104696,VALID,22.685,VALID,169,VALID,1.37891,
2012-01-20, 00:19:05,VALID,998.957,VALID,0,VALID,94.9277,VALID,0,VALID,22.6867,VALID,177,VALID,1.76602,
2012-01-20, 00:20:05,VALID,998.951,VALID,0,VALID,94.943,VALID,0.104696,VALID,22.6655,VALID,173,VALID,1.64883,
2012-01-20, 00:21:05,VALID,998.936,VALID,0,VALID,94.943,VALID,0,VALID,22.6655,VALID,163,VALID,1.34297,
2012-01-20, 00:22:05,VALID,998.894,VALID,0,VALID,94.9506,VALID,0.104696,VALID,22.6264,VALID,158,VALID,1.50664,
2012-01-20, 00:23:05,VALID,998.859,VALID,0,VALID,94.9583,VALID,0,VALID,22.6264,VALID,148,VALID,1.3168,
2012-01-20, 00:24:05,VALID,998.883,VALID,0,VALID,94.9735,VALID,0,VALID,22.6069,VALID,145,VALID,0.753125,
2012-01-20, 00:25:05,VALID,998.829,VALID,0,VALID,94.9583,VALID,0,VALID,22.6069,VALID,145,VALID,0.530469,
2012-01-20, 00:26:05,VALID,998.82,VALID,0,VALID,94.9659,VALID,0.104696,VALID,22.6264,VALID,145,VALID,0.698438,
2012-01-20, 00:27:05,VALID,998.759,VALID,0,VALID,94.9506,VALID,0,VALID,22.6282,VALID,131,VALID,0.923047,
2012-01-20, 00:28:05,VALID,998.739,VALID,0,VALID,94.9583,VALID,0,VALID,22.6087,VALID,127,VALID,0.921484,
2012-01-20, 00:29:05,VALID,998.726,VALID,0,VALID,94.9659,VALID,0.104696,VALID,22.5874,VALID,102,VALID,1.03359,
2012-01-20, 00:30:05,VALID,998.689,VALID,0,VALID,94.9811,VALID,0,VALID,22.5874,VALID,110,VALID,1.02734,
2012-01-20, 00:31:05,VALID,998.654,VALID,0,VALID,94.9735,VALID,0.104696,VALID,22.5679,VALID,122,VALID,1.19023,
2012-01-20, 00:32:05,VALID,998.628,VALID,0,VALID,94.9811,VALID,0,VALID,22.5679,VALID,122,VALID,0.885938,
2012-01-20, 00:33:05,VALID,998.621,VALID,0,VALID,94.9735,VALID,0.104696,VALID,22.5679,VALID,102,VALID,0.705078,
2012-01-20, 00:34:05,VALID,998.589,VALID,0,VALID,94.9659,VALID,0,VALID,22.5892,VALID,101,VALID,0.929297,
2012-01-20, 00:35:05,VALID,998.555,VALID,0,VALID,94.9735,VALID,0,VALID,22.5679,VALID,93,VALID,0.920703,
2012-01-20, 00:36:05,VALID,998.537,VALID,0,VALID,94.9811,VALID,0,VALID,22.5892,VALID,82,VALID,0.798047,
2012-01-20, 00:37:05,VALID,998.495,VALID,0,VALID,94.9888,VALID,0,VALID,22.5679,VALID,61,VALID,0.825,
2012-01-20, 00:38:05,VALID,998.492,VALID,0,VALID,94.9888,VALID,0,VALID,22.5892,VALID,64,VALID,0.914844,
2012-01-20, 00:39:05,VALID,998.436,VALID,0,VALID,94.9811,VALID,0,VALID,22.5892,VALID,65,VALID,0.85,
2012-01-20, 00:40:05,VALID,998.415,VALID,0,VALID,94.9888,VALID,0,VALID,22.5679,VALID,61,VALID,1.07656,
2012-01-20, 00:41:05,VALID,998.399,VALID,0,VALID,94.9811,VALID,0.104696,VALID,22.5696,VALID,61,VALID,1.04961,
2012-01-20, 00:42:05,VALID,998.381,VALID,0,VALID,94.9964,VALID,0,VALID,22.5289,VALID,61,VALID,1.23125,
2012-01-20, 00:43:05,VALID,998.36,VALID,0,VALID,94.9811,VALID,0.104696,VALID,22.5289,VALID,61,VALID,1.09609,
2012-01-20, 00:44:05,VALID,998.363,VALID,0,VALID,94.9811,VALID,0,VALID,22.5094,VALID,65,VALID,1.34883,
2012-01-20, 00:45:05,VALID,998.356,VALID,0,VALID,94.9811,VALID,0.104696,VALID,22.5289,VALID,65,VALID,1.07227,
2012-01-20, 00:46:05,VALID,998.318,VALID,0,VALID,95.004,VALID,0.104696,VALID,22.5306,VALID,66,VALID,0.770312,
2012-01-20, 00:47:05,VALID,998.345,VALID,0,VALID,94.9964,VALID,0,VALID,22.5094,VALID,74,VALID,1.10938,
2012-01-20, 00:48:05,VALID,998.328,VALID,0,VALID,94.9811,VALID,0,VALID,22.5289,VALID,95,VALID,0.765625,
2012-01-20, 00:49:05,VALID,998.289,VALID,0,VALID,94.9964,VALID,0.104696,VALID,22.5094,VALID,95,VALID,0.732813,
2012-01-20, 00:50:05,VALID,998.301,VALID,0,VALID,94.9964,VALID,0.104696,VALID,22.5094,VALID,95,VALID,0.636719,
2012-01-20, 00:51:05,VALID,998.26,VALID,0,VALID,95.004,VALID,0.104696,VALID,22.5094,VALID,87,VALID,0.699219,
2012-01-20, 00:52:05,VALID,998.235,VALID,0,VALID,95.004,VALID,0.104696,VALID,22.4899,VALID,113,VALID,1.25625,
2012-01-20, 00:53:05,VALID,998.203,VALID,0,VALID,95.004,VALID,0.104696,VALID,22.5094,VALID,123,VALID,1.17031,
2012-01-20, 00:54:05,VALID,998.189,VALID,0,VALID,95.004,VALID,0.104696,VALID,22.5094,VALID,117,VALID,0.965234,
2012-01-20, 00:55:05,VALID,998.172,VALID,0,VALID,94.9888,VALID,0.104696,VALID,22.5094,VALID,136,VALID,0.705469,
2012-01-20, 00:56:05,VALID,998.15,VALID,0,VALID,95.004,VALID,0,VALID,22.5094,VALID,130,VALID,0.555469,
2012-01-20, 00:57:05,VALID,998.106,VALID,0,VALID,95.0117,VALID,0,VALID,22.4899,VALID,139,VALID,0.600781,
2012-01-20, 00:58:05,VALID,998.09,VALID,0,VALID,95.004,VALID,0.104696,VALID,22.5094,VALID,140,VALID,0.812891,
2012-01-20, 00:59:05,VALID,998.049,VALID,0,VALID,94.9964,VALID,0.104696,VALID,22.5094,VALID,136,VALID,0.913281,
2012-01-20, 01:00:05,VALID,998.076,VALID,0,VALID,94.9811,VALID,0,VALID,22.5289,VALID,127,VALID,0.605078,
2012-01-20, 01:01:05,VALID,998.033,VALID,0,VALID,94.9888,VALID,0.104696,VALID,22.5306,VALID,129,VALID,0.999219,
2012-01-20, 01:02:05,VALID,998.001,VALID,0,VALID,95.004,VALID,0,VALID,22.5501,VALID,106,VALID,1.26914,
2012-01-20, 01:03:05,VALID,997.977,VALID,0,VALID,95.004,VALID,0,VALID,22.5306,VALID,111,VALID,1.32422,
2012-01-20, 01:04:05,VALID,997.999,VALID,0,VALID,95.0193,VALID,0,VALID,22.5306,VALID,129,VALID,1.02305,
2012-01-20, 01:05:05,VALID,998.005,VALID,0,VALID,95.0117,VALID,0,VALID,22.5306,VALID,143,VALID,1.04766,
2012-01-20, 01:06:05,VALID,997.989,VALID,0,VALID,95.0117,VALID,0,VALID,22.5714,VALID,144,VALID,0.574219,
2012-01-20, 01:07:05,VALID,998.024,VALID,0,VALID,95.004,VALID,0,VALID,22.5501,VALID,144,VALID,0.342578,
2012-01-20, 01:08:05,VALID,998.03,VALID,0,VALID,95.0269,VALID,0,VALID,22.5306,VALID,144,VALID,0.250391,
2012-01-20, 01:09:05,VALID,997.992,VALID,0,VALID,95.0193,VALID,0,VALID,22.5306,VALID,144,VALID,0,
2012-01-20, 01:10:05,VALID,997.988,VALID,0,VALID,95.0117,VALID,0,VALID,22.5501,VALID,144,VALID,0,
2012-01-20, 01:11:05,VALID,997.999,VALID,0,VALID,95.0193,VALID,0,VALID,22.5306,VALID,144,VALID,0,
2012-01-20, 01:12:05,VALID,997.987,VALID,0,VALID,95.0193,VALID,0,VALID,22.5501,VALID,130,VALID,0.455859,
2012-01-20, 01:13:05,VALID,997.935,VALID,0,VALID,95.0269,VALID,0,VALID,22.5519,VALID,85,VALID,0.952344,
2012-01-20, 01:14:05,VALID,997.903,VALID,0,VALID,95.0193,VALID,0,VALID,22.5714,VALID,86,VALID,0.682422,
2012-01-20, 01:15:05,VALID,997.894,VALID,0,VALID,95.0193,VALID,0,VALID,22.5696,VALID,118,VALID,1.03477,
2012-01-20, 01:16:05,VALID,997.887,VALID,0,VALID,95.0269,VALID,0,VALID,22.5696,VALID,115,VALID,1.59258,
2012-01-20, 01:17:05,VALID,997.899,VALID,0,VALID,95.0345,VALID,0,VALID,22.5696,VALID,111,VALID,1.28789,
2012-01-20, 01:18:05,VALID,997.873,VALID,0,VALID,95.0498,VALID,0,VALID,22.5696,VALID,117,VALID,1.26797,
2012-01-20, 01:19:05,VALID,997.863,VALID,0,VALID,95.0422,VALID,0,VALID,22.6087,VALID,111,VALID,1.34844,
2012-01-20, 01:20:05,VALID,997.844,VALID,0,VALID,95.0422,VALID,0,VALID,22.5892,VALID,102,VALID,1.26797,
2012-01-20, 01:21:05,VALID,997.839,VALID,0,VALID,95.0422,VALID,0,VALID,22.6087,VALID,96,VALID,1.05273,
2012-01-20, 01:22:05,VALID,997.823,VALID,0,VALID,95.0422,VALID,0,VALID,22.6087,VALID,93,VALID,1.21172,
2012-01-20, 01:23:05,VALID,997.859,VALID,0,VALID,95.0269,VALID,0,VALID,22.6299,VALID,83,VALID,1.14648,
2012-01-20, 01:24:05,VALID,997.868,VALID,0,VALID,95.0574,VALID,0,VALID,22.6087,VALID,82,VALID,0.884375,
2012-01-20, 01:25:05,VALID,997.845,VALID,0,VALID,95.0498,VALID,0,VALID,22.6087,VALID,76,VALID,0.902734,
2012-01-20, 01:26:05,VALID,997.845,VALID,0,VALID,95.0422,VALID,0,VALID,22.6087,VALID,58,VALID,0.79375,
2012-01-20, 01:27:05,VALID,997.835,VALID,0,VALID,95.0651,VALID,0,VALID,22.6299,VALID,37,VALID,0.992578,
2012-01-20, 01:28:05,VALID,997.844,VALID,0,VALID,95.0574,VALID,0,VALID,22.6087,VALID,17,VALID,1.18398,
2012-01-20, 01:29:05,VALID,997.812,VALID,0,VALID,95.0422,VALID,0,VALID,22.6087,VALID,358,VALID,1.09883,
2012-01-20, 01:30:05,VALID,997.808,VALID,0,VALID,95.0498,VALID,0,VALID,22.6282,VALID,353,VALID,1.19414,
2012-01-20, 01:31:05,VALID,997.755,VALID,0,VALID,95.0345,VALID,0,VALID,22.6299,VALID,360,VALID,0.81875,
2012-01-20, 01:32:05,VALID,997.763,VALID,0,VALID,95.004,VALID,0,VALID,22.6282,VALID,2,VALID,0.932422,
2012-01-20, 01:33:05,VALID,997.74,VALID,0,VALID,95.0345,VALID,0,VALID,22.6087,VALID,41,VALID,1.27031,
2012-01-20, 01:34:05,VALID,997.752,VALID,0,VALID,95.0422,VALID,0,VALID,22.6087,VALID,51,VALID,0.994141,
2012-01-20, 01:35:05,VALID,997.765,VALID,0,VALID,95.0422,VALID,0,VALID,22.6299,VALID,49,VALID,0.155859,
2012-01-20, 01:36:05,VALID,997.786,VALID,0,VALID,95.0422,VALID,0,VALID,22.5892,VALID,35,VALID,0.0789063,
2012-01-20, 01:37:05,VALID,997.773,VALID,0,VALID,95.0345,VALID,0,VALID,22.5892,VALID,35,VALID,0,
2012-01-20, 01:38:05,VALID,997.767,VALID,0,VALID,95.0269,VALID,0,VALID,22.5909,VALID,35,VALID,0,
2012-01-20, 01:39:05,VALID,997.739,VALID,0,VALID,95.0498,VALID,0,VALID,22.5696,VALID,35,VALID,0.220313,
2012-01-20, 01:40:05,VALID,997.724,VALID,0,VALID,95.0193,VALID,0,VALID,22.5909,VALID,35,VALID,0.576563,
2012-01-20, 01:41:05,VALID,997.728,VALID,0,VALID,95.0193,VALID,0,VALID,22.5909,VALID,40,VALID,0.780078,
2012-01-20, 01:42:05,VALID,997.702,VALID,0,VALID,95.0117,VALID,0,VALID,22.5892,VALID,41,VALID,0.635938,
2012-01-20, 01:43:05,VALID,997.722,VALID,0,VALID,95.0345,VALID,0,VALID,22.5892,VALID,33,VALID,0.492969,
2012-01-20, 01:44:05,VALID,997.72,VALID,0,VALID,95.004,VALID,0,VALID,22.5892,VALID,8,VALID,0.919141,
2012-01-20, 01:45:05,VALID,997.685,VALID,0,VALID,95.0345,VALID,0,VALID,22.5892,VALID,8,VALID,0.898047,
2012-01-20, 01:46:05,VALID,997.682,VALID,0,VALID,95.004,VALID,0,VALID,22.5892,VALID,8,VALID,0.794141,
2012-01-20, 01:47:05,VALID,997.686,VALID,0,VALID,95.0345,VALID,0,VALID,22.6087,VALID,10,VALID,1.09961,
2012-01-20, 01:48:05,VALID,997.658,VALID,0,VALID,95.0269,VALID,0,VALID,22.6087,VALID,23,VALID,0.977344,
2012-01-20, 01:49:05,VALID,997.611,VALID,0,VALID,95.0269,VALID,0,VALID,22.6087,VALID,26,VALID,1.05156,
2012-01-20, 01:50:05,VALID,997.589,VALID,0,VALID,95.0345,VALID,0,VALID,22.6087,VALID,47,VALID,0.880078,
2012-01-20, 01:51:05,VALID,997.578,VALID,0,VALID,95.0345,VALID,0,VALID,22.6299,VALID,45,VALID,0.88125,
2012-01-20, 01:52:05,VALID,997.516,VALID,0,VALID,95.0498,VALID,0,VALID,22.6087,VALID,64,VALID,0.908203,
2012-01-20, 01:53:05,VALID,997.538,VALID,0,VALID,95.0498,VALID,0,VALID,22.6087,VALID,70,VALID,0.483984,
2012-01-20, 01:54:05,VALID,997.474,VALID,0,VALID,95.0269,VALID,0,VALID,22.6299,VALID,79,VALID,0.973437,
2012-01-20, 01:55:05,VALID,997.444,VALID,0,VALID,95.0498,VALID,0,VALID,22.6104,VALID,85,VALID,1.15156,
2012-01-20, 01:56:05,VALID,997.437,VALID,0,VALID,95.0651,VALID,0,VALID,22.6087,VALID,97,VALID,1.05898,
2012-01-20, 01:57:05,VALID,997.466,VALID,0,VALID,95.0574,VALID,0,VALID,22.6299,VALID,101,VALID,0.735547,
2012-01-20, 01:58:05,VALID,997.434,VALID,0,VALID,95.0574,VALID,0,VALID,22.6104,VALID,101,VALID,0.370313,
2012-01-20, 01:59:05,VALID,997.422,VALID,0,VALID,95.0574,VALID,0,VALID,22.6087,VALID,83,VALID,0.582031,
2012-01-20, 02:00:05,VALID,997.412,VALID,0,VALID,95.0498,VALID,0,VALID,22.5892,VALID,22,VALID,0.892969,
2012-01-20, 02:01:05,VALID,997.397,VALID,0,VALID,95.0345,VALID,0,VALID,22.5909,VALID,58,VALID,1.03828,
2012-01-20, 02:02:05,VALID,997.367,VALID,0,VALID,95.0422,VALID,0,VALID,22.5892,VALID,71,VALID,0.853906,
2012-01-20, 02:03:05,VALID,997.363,VALID,0,VALID,95.0269,VALID,0,VALID,22.5892,VALID,59,VALID,1.00312,
2012-01-20, 02:04:05,VALID,997.377,VALID,0,VALID,95.0345,VALID,0,VALID,22.6104,VALID,59,VALID,1.07539,
2012-01-20, 02:05:05,VALID,997.336,VALID,0,VALID,95.0422,VALID,0,VALID,22.6104,VALID,49,VALID,0.964063,
2012-01-20, 02:06:05,VALID,997.335,VALID,0,VALID,95.0193,VALID,0,VALID,22.6299,VALID,50,VALID,1.11367,
2012-01-20, 02:07:05,VALID,997.321,VALID,0,VALID,95.0422,VALID,0,VALID,22.6087,VALID,59,VALID,0.689453,
2012-01-20, 02:08:05,VALID,997.313,VALID,0,VALID,95.0345,VALID,0,VALID,22.6282,VALID,320,VALID,1.10977,
2012-01-20, 02:09:05,VALID,997.317,VALID,0,VALID,95.0345,VALID,0,VALID,22.6282,VALID,313,VALID,0.880859,
2012-01-20, 02:10:05,VALID,997.336,VALID,0,VALID,95.0345,VALID,0,VALID,22.6494,VALID,320,VALID,0.0824219,
2012-01-20, 02:11:05,VALID,997.333,VALID,0,VALID,95.0269,VALID,0,VALID,22.6494,VALID,74,VALID,1.02188,
2012-01-20, 02:12:05,VALID,997.349,VALID,0,VALID,95.0193,VALID,0,VALID,22.6494,VALID,60,VALID,1.10469,
2012-01-20, 02:13:05,VALID,997.363,VALID,0,VALID,95.0117,VALID,0,VALID,22.6477,VALID,45,VALID,1.04062,
2012-01-20, 02:14:05,VALID,997.354,VALID,0,VALID,95.0269,VALID,0,VALID,22.6867,VALID,64,VALID,1.79297,
2012-01-20, 02:15:05,VALID,997.34,VALID,0,VALID,95.0117,VALID,0,VALID,22.6867,VALID,70,VALID,1.89297,
2012-01-20, 02:16:05,VALID,997.359,VALID,0,VALID,95.0117,VALID,0,VALID,22.7274,VALID,77,VALID,1.63789,
2012-01-20, 02:17:05,VALID,997.397,VALID,0,VALID,95.0117,VALID,0,VALID,22.7469,VALID,69,VALID,1.76055,
2012-01-20, 02:18:05,VALID,997.39,VALID,0,VALID,95.0269,VALID,0,VALID,22.724,VALID,79,VALID,1.35078,
2012-01-20, 02:19:05,VALID,997.41,VALID,0,VALID,95.0193,VALID,0,VALID,22.724,VALID,60,VALID,1.78789,
2012-01-20, 02:20:05,VALID,997.386,VALID,0,VALID,95.0345,VALID,0,VALID,22.7257,VALID,79,VALID,1.66289,
2012-01-20, 02:21:05,VALID,997.385,VALID,0,VALID,95.0422,VALID,0,VALID,22.7452,VALID,74,VALID,1.78633,
2012-01-20, 02:22:05,VALID,997.363,VALID,0,VALID,95.0422,VALID,0,VALID,22.7452,VALID,92,VALID,1.2668,
2012-01-20, 02:23:05,VALID,997.394,VALID,0,VALID,95.0498,VALID,0,VALID,22.685,VALID,69,VALID,2.45742,
2012-01-20, 02:24:05,VALID,997.392,VALID,0,VALID,95.0345,VALID,0.104696,VALID,22.6655,VALID,75,VALID,2.06914,
2012-01-20, 02:25:05,VALID,997.423,VALID,0,VALID,95.0574,VALID,0,VALID,22.6655,VALID,70,VALID,1.88359,
2012-01-20, 02:26:05,VALID,997.399,VALID,0,VALID,95.0498,VALID,0,VALID,22.6655,VALID,57,VALID,1.55586,
2012-01-20, 02:27:05,VALID,997.439,VALID,0,VALID,95.0574,VALID,0.104696,VALID,22.685,VALID,53,VALID,1.58594,
2012-01-20, 02:28:05,VALID,997.441,VALID,0,VALID,95.0269,VALID,0,VALID,22.7045,VALID,36,VALID,1.16172,
2012-01-20, 02:29:05,VALID,997.424,VALID,0,VALID,95.0345,VALID,0.104696,VALID,22.7045,VALID,33,VALID,1.33789,
2012-01-20, 02:30:05,VALID,997.409,VALID,0,VALID,95.0345,VALID,0.104696,VALID,22.724,VALID,35,VALID,1.04062,
2012-01-20, 02:31:05,VALID,997.453,VALID,0,VALID,95.0269,VALID,0.104696,VALID,22.7452,VALID,33,VALID,0.773828,
2012-01-20, 02:32:05,VALID,997.424,VALID,0,VALID,95.0345,VALID,0.104696,VALID,22.724,VALID,37,VALID,1.36914,
2012-01-20, 02:33:05,VALID,997.426,VALID,0,VALID,95.0269,VALID,0,VALID,22.7435,VALID,33,VALID,1.1832,
2012-01-20, 02:34:05,VALID,997.455,VALID,0,VALID,95.0345,VALID,0,VALID,22.7045,VALID,10,VALID,0.938672,
2012-01-20, 02:35:05,VALID,997.456,VALID,0,VALID,95.004,VALID,0,VALID,22.7045,VALID,4,VALID,1.24805,
2012-01-20, 02:36:05,VALID,997.464,VALID,0,VALID,95.0193,VALID,0.104696,VALID,22.7045,VALID,4,VALID,1.49531,
2012-01-20, 02:37:05,VALID,997.429,VALID,0,VALID,95.0117,VALID,0,VALID,22.685,VALID,25,VALID,1.34258,
2012-01-20, 02:38:05,VALID,997.412,VALID,0,VALID,95.004,VALID,0.104696,VALID,22.685,VALID,29,VALID,0.926953,
2012-01-20, 02:39:05,VALID,997.387,VALID,0,VALID,95.0117,VALID,0,VALID,22.7257,VALID,28,VALID,0.492188,
2012-01-20, 02:40:05,VALID,997.391,VALID,0,VALID,94.9964,VALID,0.104696,VALID,22.7045,VALID,24,VALID,0.480078,
2012-01-20, 02:41:05,VALID,997.378,VALID,0,VALID,95.0269,VALID,0,VALID,22.6867,VALID,24,VALID,0.393359,
2012-01-20, 02:42:05,VALID,997.362,VALID,0,VALID,95.004,VALID,0,VALID,22.685,VALID,24,VALID,0.466406,
2012-01-20, 02:43:05,VALID,997.342,VALID,0,VALID,95.0117,VALID,0.104696,VALID,22.7062,VALID,30,VALID,0.658594,
2012-01-20, 02:44:05,VALID,997.351,VALID,0,VALID,94.9888,VALID,0.104696,VALID,22.685,VALID,34,VALID,0.851172,
2012-01-20, 02:45:05,VALID,997.348,VALID,0,VALID,95.004,VALID,0.104696,VALID,22.7045,VALID,25,VALID,0.686719,
2012-01-20, 02:46:05,VALID,997.405,VALID,0,VALID,94.9964,VALID,0.104696,VALID,22.7452,VALID,11,VALID,0.764453,
2012-01-20, 02:47:04,VALID,997.432,VALID,0,VALID,94.9888,VALID,0,VALID,22.7045,VALID,347,VALID,0.681641,
2012-01-20, 02:48:04,VALID,997.422,VALID,0,VALID,94.9659,VALID,0,VALID,22.7062,VALID,341,VALID,0.627344,
2012-01-20, 02:49:04,VALID,997.426,VALID,0,VALID,94.9811,VALID,0,VALID,22.7062,VALID,341,VALID,0.0980469,
2012-01-20, 02:50:04,VALID,997.438,VALID,0,VALID,94.9811,VALID,0,VALID,22.7257,VALID,341,VALID,0.205859,
2012-01-20, 02:51:04,VALID,997.457,VALID,0,VALID,94.9735,VALID,0,VALID,22.7062,VALID,29,VALID,0.727734,
2012-01-20, 02:52:04,VALID,997.443,VALID,0,VALID,94.9735,VALID,0,VALID,22.7257,VALID,44,VALID,1.16953,
2012-01-20, 02:53:04,VALID,997.475,VALID,0,VALID,94.9811,VALID,0,VALID,22.7452,VALID,52,VALID,1.03047,
2012-01-20, 02:54:04,VALID,997.47,VALID,0,VALID,94.943,VALID,0,VALID,22.7647,VALID,50,VALID,0.445703,
2012-01-20, 02:55:04,VALID,997.488,VALID,0,VALID,94.9583,VALID,0,VALID,22.7842,VALID,14,VALID,0.555078,
2012-01-20, 02:56:04,VALID,997.511,VALID,0,VALID,94.9583,VALID,0,VALID,22.8037,VALID,14,VALID,0.341406,
2012-01-20, 02:57:04,VALID,997.493,VALID,0,VALID,94.9735,VALID,0,VALID,22.8232,VALID,14,VALID,0.233984,
2012-01-20, 02:58:04,VALID,997.506,VALID,0,VALID,94.9659,VALID,0,VALID,22.8427,VALID,14,VALID,0.126953,
2012-01-20, 02:59:04,VALID,997.514,VALID,0,VALID,94.9583,VALID,0,VALID,22.8427,VALID,14,VALID,0.192969,
2012-01-20, 03:00:04,VALID,997.502,VALID,0,VALID,94.9583,VALID,0,VALID,22.8427,VALID,14,VALID,0.286328,
2012-01-20, 03:01:04,VALID,997.518,VALID,0,VALID,94.9659,VALID,0,VALID,22.8835,VALID,264,VALID,0.905859,
2012-01-20, 03:02:04,VALID,997.536,VALID,0,VALID,94.9583,VALID,0,VALID,22.8623,VALID,271,VALID,0.0257812,
2012-01-20, 03:03:04,VALID,997.537,VALID,0,VALID,94.9659,VALID,0,VALID,22.8605,VALID,271,VALID,0.177734,
2012-01-20, 03:04:04,VALID,997.518,VALID,0,VALID,94.9735,VALID,0,VALID,22.9013,VALID,271,VALID,0.380078,
2012-01-20, 03:05:04,VALID,997.551,VALID,0,VALID,94.943,VALID,0,VALID,22.88,VALID,327,VALID,0.432422,
2012-01-20, 03:06:04,VALID,997.535,VALID,0,VALID,94.9735,VALID,0,VALID,22.8995,VALID,327,VALID,0.386719,
2012-01-20, 03:07:04,VALID,997.552,VALID,0,VALID,94.9583,VALID,0,VALID,22.8995,VALID,356,VALID,0.447266,
2012-01-20, 03:08:04,VALID,997.564,VALID,0,VALID,94.9583,VALID,0,VALID,22.9403,VALID,356,VALID,0.532422,
2012-01-20, 03:09:04,VALID,997.593,VALID,0,VALID,94.9583,VALID,0,VALID,22.9385,VALID,359,VALID,0.725391,
2012-01-20, 03:10:04,VALID,997.585,VALID,0,VALID,94.943,VALID,0,VALID,22.9581,VALID,13,VALID,1.17344,
2012-01-20, 03:11:04,VALID,997.629,VALID,0,VALID,94.9354,VALID,0,VALID,22.9971,VALID,13,VALID,0.409766,
2012-01-20, 03:12:04,VALID,997.591,VALID,0,VALID,94.9201,VALID,0,VALID,23.0378,VALID,8,VALID,0.785547,
2012-01-20, 03:13:04,VALID,997.608,VALID,0,VALID,94.8972,VALID,0,VALID,23.0573,VALID,353,VALID,0.34375,
2012-01-20, 03:14:04,VALID,997.554,VALID,0,VALID,94.882,VALID,0,VALID,23.0573,VALID,353,VALID,0.025,
2012-01-20, 03:15:04,VALID,997.574,VALID,0,VALID,94.8591,VALID,0,VALID,23.0556,VALID,353,VALID,0,
2012-01-20, 03:16:04,VALID,997.556,VALID,0,VALID,94.8667,VALID,0,VALID,23.0378,VALID,353,VALID,0,
2012-01-20, 03:17:04,VALID,997.53,VALID,0,VALID,94.8514,VALID,0,VALID,23.0166,VALID,353,VALID,0,
2012-01-20, 03:18:04,VALID,997.545,VALID,0,VALID,94.8667,VALID,0,VALID,22.9988,VALID,353,VALID,0.285937,
2012-01-20, 03:19:04,VALID,997.537,VALID,0,VALID,94.8362,VALID,0,VALID,22.9988,VALID,353,VALID,0.00273437,
2012-01-20, 03:20:04,VALID,997.55,VALID,0,VALID,94.8438,VALID,0,VALID,22.9988,VALID,230,VALID,0.594531,
2012-01-20, 03:21:04,VALID,997.552,VALID,0,VALID,94.8133,VALID,0,VALID,22.9988,VALID,230,VALID,0,
2012-01-20, 03:22:04,VALID,997.54,VALID,0,VALID,94.8209,VALID,0,VALID,23.0006,VALID,323,VALID,0.497656,
2012-01-20, 03:23:04,VALID,997.526,VALID,0,VALID,94.7904,VALID,0,VALID,22.9988,VALID,344,VALID,0.121875,
2012-01-20, 03:24:04,VALID,997.572,VALID,0,VALID,94.7904,VALID,0,VALID,23.0378,VALID,239,VALID,0.867578,
2012-01-20, 03:25:04,VALID,997.566,VALID,0,VALID,94.7828,VALID,0,VALID,23.0981,VALID,241,VALID,0.0941406,
2012-01-20, 03:26:04,VALID,997.587,VALID,0,VALID,94.7675,VALID,0,VALID,23.0769,VALID,242,VALID,0.376953,
2012-01-20, 03:27:04,VALID,997.595,VALID,0,VALID,94.7446,VALID,0,VALID,23.1159,VALID,237,VALID,1.19766,
2012-01-20, 03:28:04,VALID,997.578,VALID,0,VALID,94.7141,VALID,0,VALID,23.1566,VALID,202,VALID,0.571094,
2012-01-20, 03:29:04,VALID,997.619,VALID,0,VALID,94.7217,VALID,0,VALID,23.1549,VALID,202,VALID,0.281641,
2012-01-20, 03:30:04,VALID,997.636,VALID,0,VALID,94.7217,VALID,0,VALID,23.1744,VALID,236,VALID,0.696484,
2012-01-20, 03:31:04,VALID,997.645,VALID,0,VALID,94.7141,VALID,0,VALID,23.1957,VALID,235,VALID,0.256641,
2012-01-20, 03:32:04,VALID,997.663,VALID,0,VALID,94.7217,VALID,0,VALID,23.1957,VALID,235,VALID,0.213281,
2012-01-20, 03:33:04,VALID,997.658,VALID,0,VALID,94.7141,VALID,0,VALID,23.1744,VALID,235,VALID,0,
2012-01-20, 03:34:04,VALID,997.688,VALID,0,VALID,94.6912,VALID,0,VALID,23.1762,VALID,235,VALID,0.559375,
2012-01-20, 03:35:04,VALID,997.694,VALID,0,VALID,94.6912,VALID,0,VALID,23.1549,VALID,235,VALID,0.341797,
2012-01-20, 03:36:04,VALID,997.681,VALID,0,VALID,94.676,VALID,0,VALID,23.1957,VALID,235,VALID,0,
2012-01-20, 03:37:04,VALID,997.699,VALID,0,VALID,94.6836,VALID,0,VALID,23.1744,VALID,235,VALID,0.235547,
2012-01-20, 03:38:04,VALID,997.704,VALID,0,VALID,94.6531,VALID,0,VALID,23.1939,VALID,235,VALID,0.145313,
2012-01-20, 03:39:04,VALID,997.694,VALID,0,VALID,94.6607,VALID,0,VALID,23.1744,VALID,235,VALID,0,
2012-01-20, 03:40:04,VALID,997.737,VALID,0,VALID,94.6454,VALID,0,VALID,23.1762,VALID,235,VALID,0,
2012-01-20, 03:41:04,VALID,997.75,VALID,0,VALID,94.6149,VALID,0,VALID,23.1371,VALID,235,VALID,0,
2012-01-20, 03:42:04,VALID,997.742,VALID,0,VALID,94.5768,VALID,0,VALID,23.1354,VALID,235,VALID,0,
2012-01-20, 03:43:04,VALID,997.744,VALID,0,VALID,94.5539,VALID,0,VALID,23.1549,VALID,235,VALID,0,
2012-01-20, 03:44:04,VALID,997.758,VALID,0,VALID,94.5234,VALID,0,VALID,23.1762,VALID,235,VALID,0,